Flag for Saudi Arabia Weather past 2 weeks in Haql, Saudi Arabia

Now
75 °F

Clear.


Feels Like: 76 °F
Forecast: 47 / 66 °F
Wind: 8 mph from Northeast

Location: Eilat

Current Time: Mar 3, 2015 at 8:12:57 PM

Latest Report: Mar 3, 2015 at 6:50 PM


Visibility: 10 mi

Pressure: 30.09 "Hg

Humidity: 21%

Dew point: 32 °F

Location of HaqlLocation

Historic Weather in Haql — Graph

°F

Haql temperature yesterday

Maximum temperature yesterday: 75 °F (at 2:50 PM)
Minimum temperature yesterday: 55 °F (at 6:50 AM)
Average temperature yesterday: 69 °F

Past Weeks' High & Low Weather Summary

 TemperatureHumidityPressure
High90 °F (Feb 26, 1:50 PM)77% (Feb 17, 6:50 AM)30.24 "Hg (Feb 17, 6:50 AM)
Low46 °F (Feb 22, 6:50 AM)13% (Feb 27, 10:50 AM)29.80 "Hg (Feb 24, 2:50 PM)
Average67 °F42%30.04 "Hg
* Reported Feb 16 6:50 PM — Mar 3 6:50 PM, Haql, Weather by CustomWeather, © 2015

Note: Actual official high and low records may vary slightly from our data, if they occured in-between our weather recording intervals... More about our weather records

Advertising

Haql weather history for previous 24 hours

 ConditionsComfort  
Time TempWeatherWind HumidityBarometerVisibility
6:50 PM
Tue, Mar 3
75 °FClear.8 mph21%30.09 "Hg10 mi
5:50 PM77 °FSunny.14 mph19%30.07 "Hg10 mi
4:50 PM77 °FSunny.16 mph19%30.07 "Hg10 mi
3:50 PM79 °FSunny.14 mph18%30.07 "Hg10 mi
2:50 PM79 °FSunny.15 mph18%30.09 "Hg10 mi
1:50 PM77 °FSunny.16 mph19%30.09 "Hg10 mi
12:50 PM77 °FSunny.18 mph21%30.12 "Hg10 mi
11:50 AM75 °FSunny.17 mph25%30.15 "Hg10 mi
10:50 AM70 °FSunny.18 mph40%30.15 "Hg10 mi
9:50 AM64 °FSunny.17 mph56%30.18 "Hg10 mi
8:50 AM61 °FSunny.17 mph59%30.15 "Hg10 mi
7:50 AM59 °FSunny.13 mph63%30.15 "Hg10 mi
6:50 AM57 °FClear.10 mph67%30.12 "Hg10 mi
10:50 PM
Mon, Mar 2
70 °FClear.15 mph38%30.12 "Hg10 mi
9:50 PM70 °FClear.15 mph38%30.12 "Hg10 mi
8:50 PM70 °FClear.14 mph38%30.12 "Hg10 mi
Weather by CustomWeather, © 2015

See weather overviewHow to use our weather pages